Regional Weather Roundup
Issued by NWS

Home | Current Version | Previous Version | Graphics & Text | Print | Product List | Glossary On
Versions: 1 2 3 4 5 6 7 8 9 10 11 12 13 14 15 16 17 18 19 20 21 22 23 24 25 26 27 28 29 30 31 32 33 34 35 36 37 38 39 40 41 42 43 44 45 46 47 48 49
000
ASUS45 KBOU 230107
RWRCO

WEATHER ROUNDUP FOR COLORADO
NATIONAL WEATHER SERVICE DENVER/BOULDER CO
600 PM MST SAT NOV 22 2014

NOTE: "FAIR" INDICATES FEW OR NO CLOUDS BELOW 12000 FEET WITH NO
SIGNIFICANT WEATHER AND/OR OBSTRUCTIONS TO VISIBILITY.

COZ001>005-013-030-031-230200-
...NORTHWEST COLORADO...

CITY           SKY/WX    TMP DP  RH WIND       PRES   REMARKS
CRAIG          CLOUDY    41  27  57 SW14      29.75F
HAYDEN         CLOUDY    34  28  80 SE8       29.75F WCI  27
MEEKER         CLOUDY    40  28  62 SW9       29.78F
MOUNT WERNER   NOT AVBL
STEAMBOAT SPGS CLOUDY    32  31  96 CALM      29.76F
WALDEN         CLOUDY    30  27  86 SE5       29.74F WCI  25
$$

COZ006>008-011-230200-
...WEST CENTRAL VALLEYS...

CITY           SKY/WX    TMP DP  RH WIND       PRES   REMARKS
GRAND JUNCTION LGT RAIN  36  33  89 NE6       29.83F
MONTROSE       CLOUDY    43  25  49 E6        29.85F
EAGLE          NOT AVBL
RIFLE          LGT RAIN  39  32  76 SW5       29.85F
DELTA          CLOUDY    44  35  70 NE13      29.85F
NUCLA          CLOUDY    45  21  39 SE8       29.90F
$$

COZ017>023-064>068-230200-
...SOUTHWEST COLORADO...

CITY           SKY/WX    TMP DP  RH WIND       PRES   REMARKS
DURANGO        CLOUDY    41  19  41 SW3       29.93F
CORTEZ         CLOUDY    42  23  46 CALM      29.91F
PAGOSA SPRINGS CLOUDY    40  18  42 SW6       29.95S
TELLURIDE      CLOUDY    36  19  50 NW5       29.97S
WOLF CREEK PAS PTCLDY    19  16  86 SW32G40   29.94F WCI   0
$$

COZ009-010-012-014-032>034-037-058>063-230200-
...CENTRAL COLORADO...

CITY           SKY/WX    TMP DP  RH WIND       PRES   REMARKS
ASPEN          CLOUDY    34  28  79 VRB3      29.82F
BUENA VISTA    MOCLDY    39  21  47 W18G33    29.83R
COPPER MTN     FLURRIES  28  19  69 SW7       29.88F WCI  21
BERTHOUD PASS  LGT SNOW  19  14  79 W28G43    29.83F WCI   1
COTTONWOOD PAS LGT SNOW  34  23  64 W21G37    29.85R WCI  22
GUNNISON       CLOUDY    28  19  69 CALM      29.95R
KREMMLING      FLURRIES  36  28  75 W7        29.79F
LEADVILLE      LGT SNOW  27  22  81 CALM      29.84F
MONARCH PASS   HVY SNOW  21  19  93 W32G39    30.02F VSB<1/4 WCI   2
SALIDA         MOCLDY    40  27  59 W16G32    29.91S
SUNLIGHT       SNOW      28  27  93 CALM      29.85F VSB 1/2
WILKERSON PASS CLOUDY    28  18  64 W13G29    29.83F WCI  18
$$

COZ069>075-230200-
...SAN LUIS VALLEY/SANGRE DE CRISTO MOUNTAINS...

CITY           SKY/WX    TMP DP  RH WIND       PRES   REMARKS
ALAMOSA        PTCLDY    34  14  43 SW9       29.84S WCI  27
LA VETA PASS   PTCLDY    30  10  43 S23G47    29.79R WCI  17
SAGUACHE       CLOUDY    36  18  48 N5        29.86S
$$

COZ035-036-038>040-230200-
...NORTHERN COLORADO FRONT RANGE...

CITY           SKY/WX    TMP DP  RH WIND       PRES   REMARKS
DENVER INTL AP CLOUDY    50  24  36 W9        29.59F
DMNS CITY PARK   N/A     53  22  30 W12G21    29.59R
AURORA         MOCLDY    47  22  38 N3        29.61F
FRONT RANGE AP CLOUDY    46  30  53 NW6       29.60F
ERIE MUNI ARPT CLOUDY    50  21  31 CALM      29.60R
BOULDER MUN AP CLOUDY    50  25  37 N9        29.59R
CENTENNIAL     CLOUDY    50  21  32 N5        29.61S
BROOMFIELD     MOCLDY    50  23  34 W22G30    29.62F
FORT COLLINS   CLOUDY    52  25  35 W17G25    29.59R
LONGMONT       CLOUDY    52  24  33 NW12G18   29.61R
$$

COZ041-046-047-076>085-087-088-230200-
...PIKES PEAK/PALMER DIVIDE AND SOUTHERN FOOTHILLS...

CITY           SKY/WX    TMP DP  RH WIND       PRES   REMARKS
COLO. SPRINGS  CLOUDY    56  15  20 NW20G28   29.62S
A. F. ACADEMY  CLOUDY    52  13  21 NW14G20   29.62F
ELLICOTT       NOT AVBL
FALCON         NOT AVBL
FORT CARSON    CLOUDY    49  14  25 VRB3      29.61R
LIMON          CLOUDY    38  15  39 N5        29.58R
MONUMENT HILL  CLOUDY    43  16  33 N7        29.65S
TRINIDAD       MOCLDY    45  24  43 SW9       29.63F
$$

COZ042>045-048>051-090-091-230200-
...NORTHEAST COLORADO...

CITY           SKY/WX    TMP DP  RH WIND       PRES   REMARKS
GREELEY ARPT   CLOUDY    39  25  56 CALM      29.60F
AKRON          CLOUDY    49  15  25 N10       29.57R
BURLINGTON     CLOUDY    45  19  35 S12       29.55F
WRAY           CLOUDY    50   9  19 NE5       29.52S
STERLING       CLOUDY    48  27  43 N5        29.55R
HOLYOKE        CLOUDY    46  16  29 NW7       29.54R
FORT MORGAN    CLOUDY    47  17  30 NW12      29.57S
$$

COZ086-089-092>099-230200-
...SOUTHEAST COLORADO...

CITY           SKY/WX    TMP DP  RH WIND       PRES   REMARKS
PUEBLO         CLOUDY    60  15  17 W22G33    29.58R
LA JUNTA       MOCLDY    54  25  32 SW16      29.54F
LAMAR          PTCLDY    41  25  53 S12       29.52F
SPRINGFIELD      N/A     36  21  54 CALM      29.58F
$$



USA.gov is the U.S. government's official web portal to all federal, state and local government web resources and services.